Weather History for Ord, NE

Change the Weather History Date:

Monday, August 5, 2013

  Actual Average Record
Temperature  
Mean Temperature 78 °F 74 °F  
Max Temperature 88 °F 87 °F 100 °F (2006)
Min Temperature 68 °F 62 °F 51 °F (2012)
Degree Days  
Heating Degree Days 0 0  
Month to date heating degree days 0 0  
Since 1 June heating degree days 54 42  
Since 1 July heating degree days 7 5  
Cooling Degree Days 13 10  
Month to date cooling degree days 34 50  
Year to date cooling degree days 522 550  
Since 1 June cooling degree days 475 509  
Growing Degree Days 28 (Base 50)    
Moisture  
Dew Point 69 °F    
Average Humidity 77    
Maximum Humidity 100    
Minimum Humidity 53    
Precipitation  
Precipitation 0.42 in 0.10 in 5.76 in (1981)
Month to date precipitation 0.81 0.48  
Year to date precipitation 16.47 16.23  
Sea Level Pressure  
Sea Level Pressure 29.93 in    
Wind  
Wind Speed 6 mph (SSE)    
Max Wind Speed 15 mph    
Max Gust Speed 22 mph    
Visibility 7 miles    
Events Fog , Rain , Thunderstorm    
T = Trace of Precipitation, MM = Missing Value Source: NWS Daily Summary

Daily Weather History Graph

Daily Weather History Graph

Search for Another Location

Airport:

Trip Planner

Search our weather history database for the weather conditions in past years. The results will help you decide how hot, cold, wet, or windy it might be!

Date:

Astronomy

Aug. 05, 2013 Rise Set
Actual Time 6:34 AM CDT 8:48 PM CDT
Civil Twilight 6:03 AM CDT 9:19 PM CDT
Nautical Twilight 5:25 AM CDT 9:56 PM CDT
Astronomical Twilight 4:43 AM CDT 10:38 PM CDT
Moon 5:31 AM CDT (8/5) 7:49 PM CDT (8/5)
Length of Visible Light 15h 15m
Length of Day
14h 13m
Waning Crescent, 1% of the Moon is Illuminated
Aug 5
Waning Crescent
Aug 6
New
Aug 14
First Quarter
Aug 20
Full
Aug 28
Last Quarter

Hourly Weather History & Observations

Time (CDT) Temp. Heat Index Dew Point Humidity Pressure Visibility Wind Dir Wind Speed Gust Speed Precip Events Conditions
12:26 AM 69.8 °F - 68.0 °F 94% 30.02 in 9.0 mi SSE 3.5 mph - N/A   Partly Cloudy
12:53 AM 69.1 °F - 66.9 °F 93% 29.99 in 8.0 mi SSE 5.8 mph - N/A   Scattered Clouds
1:03 AM 69.8 °F - 66.2 °F 88% 30.01 in 7.0 mi SSE 4.6 mph - N/A   Mostly Cloudy
1:41 AM 69.8 °F - 66.2 °F 88% 29.99 in 6.0 mi SSE 3.5 mph - N/A   Overcast
1:53 AM 69.1 °F - 66.9 °F 93% 29.96 in 5.0 mi SSE 4.6 mph - N/A   Overcast
2:53 AM 69.1 °F - 68.0 °F 96% 29.93 in 5.0 mi SSE 6.9 mph - N/A   Overcast
3:53 AM 70.0 °F - 69.1 °F 97% 29.92 in 7.0 mi South 8.1 mph - N/A   Overcast
4:53 AM 70.0 °F - 69.1 °F 97% 29.90 in 3.0 mi South 8.1 mph - N/A   Overcast
5:40 AM 69.8 °F - 69.8 °F 100% 29.93 in 2.5 mi South 8.1 mph - N/A   Overcast
5:53 AM 70.0 °F - 69.1 °F 97% 29.91 in 2.0 mi SSW 8.1 mph - N/A   Overcast
6:27 AM 69.8 °F - 69.8 °F 100% 29.93 in 3.0 mi South 6.9 mph - N/A   Overcast
6:53 AM 70.0 °F - 69.1 °F 97% 29.91 in 4.0 mi South 8.1 mph - N/A   Overcast
7:04 AM 69.8 °F - 69.8 °F 100% 29.95 in 1.8 mi SSW 4.6 mph - N/A   Overcast
7:53 AM 70.0 °F - 69.1 °F 97% 29.94 in 1.2 mi Calm Calm - N/A   Overcast
8:53 AM 71.1 °F - 70.0 °F 96% 29.92 in 1.2 mi South 5.8 mph - N/A   Overcast
9:06 AM 71.6 °F - 69.8 °F 94% 29.96 in 1.0 mi South 5.8 mph - N/A   Overcast
9:19 AM 71.6 °F - 69.8 °F 94% 29.98 in 1.2 mi Calm Calm - 0.01 in   Overcast
9:26 AM 71.6 °F - 69.8 °F 94% 29.98 in 1.0 mi Calm Calm - 0.01 in   Overcast
9:38 AM 71.6 °F - 69.8 °F 94% 29.98 in 1.2 mi Calm Calm - 0.01 in Thunderstorm Overcast
9:53 AM 71.1 °F - 70.0 °F 96% 29.96 in 1.2 mi North 3.5 mph - 0.01 in Rain , Thunderstorm Light Thunderstorms and Rain
10:08 AM 71.6 °F - 69.8 °F 94% 30.00 in 0.8 mi Calm Calm - 0.06 in Rain , Thunderstorm Heavy Thunderstorms and Rain
10:27 AM 69.8 °F - 68.0 °F 94% 29.98 in 0.5 mi Calm Calm - 0.41 in Fog , Rain , Thunderstorm Light Thunderstorms and Rain
10:30 AM 69.8 °F - 68.0 °F 94% 29.97 in 1.8 mi Calm Calm - 0.41 in Rain , Thunderstorm Light Thunderstorms and Rain
10:37 AM 69.8 °F - 69.8 °F 100% 29.96 in 10.0 mi North 4.6 mph - 0.41 in Thunderstorm Thunderstorm
10:45 AM 71.6 °F - 69.8 °F 94% 29.96 in 10.0 mi Calm Calm - 0.41 in   Mostly Cloudy
10:51 AM 71.6 °F - 69.8 °F 94% 29.96 in 10.0 mi Calm Calm - 0.41 in   Scattered Clouds
10:53 AM 73.0 °F - 70.0 °F 90% 29.93 in 10.0 mi ENE 3.5 mph - 0.41 in   Scattered Clouds
11:02 AM 73.4 °F - 71.6 °F 94% 29.96 in 8.0 mi Calm Calm - N/A   Mostly Cloudy
11:53 AM 75.0 °F - 71.1 °F 87% 29.90 in 10.0 mi SSE 11.5 mph - N/A   Mostly Cloudy
12:07 PM 77.0 °F - 71.6 °F 83% 29.93 in 10.0 mi SSE 9.2 mph - N/A   Mostly Cloudy
12:53 PM 81.0 °F 84.4 °F 70.0 °F 69% 29.88 in 10.0 mi South 6.9 mph - N/A   Clear
1:53 PM 82.9 °F 87.0 °F 70.0 °F 65% 29.88 in 10.0 mi Variable 6.9 mph - N/A   Clear
2:53 PM 84.9 °F 88.8 °F 69.1 °F 59% 29.89 in 10.0 mi West 3.5 mph - N/A   Clear
3:53 PM 87.1 °F 90.6 °F 68.0 °F 53% 29.87 in 10.0 mi Variable 4.6 mph - N/A   Clear
4:53 PM 82.9 °F 86.5 °F 69.1 °F 63% 29.88 in 10.0 mi NNE 12.7 mph - N/A   Clear
5:53 PM 82.9 °F 86.5 °F 69.1 °F 63% 29.86 in 10.0 mi NNE 9.2 mph - N/A   Clear
6:00 PM 82.4 °F 85.4 °F 68.0 °F 62% 29.90 in 10.0 mi NNE 8.1 mph - N/A Thunderstorm Clear
6:19 PM 82.4 °F 85.4 °F 68.0 °F 62% 29.90 in 10.0 mi NE 6.9 mph - N/A   Clear
6:53 PM 80.1 °F 82.3 °F 66.9 °F 64% 29.88 in 10.0 mi ENE 5.8 mph - N/A   Mostly Cloudy
7:53 PM 80.1 °F 82.7 °F 68.0 °F 67% 29.88 in 10.0 mi East 5.8 mph - N/A   Scattered Clouds
8:53 PM 77.0 °F - 68.0 °F 74% 29.88 in 10.0 mi ESE 4.6 mph - N/A   Mostly Cloudy
9:32 PM 73.4 °F - 66.2 °F 78% 29.91 in 10.0 mi ESE 3.5 mph - N/A   Mostly Cloudy
9:53 PM 73.9 °F - 69.1 °F 85% 29.88 in 10.0 mi Calm Calm - N/A   Overcast
10:53 PM 73.0 °F - 68.0 °F 84% 29.89 in 10.0 mi SSW 4.6 mph - N/A   Overcast
11:32 PM 73.4 °F - 64.4 °F 73% 29.91 in 10.0 mi Calm Calm - N/A   Scattered Clouds
11:53 PM 71.1 °F - 64.0 °F 78% 29.88 in 10.0 mi SSE 5.8 mph - N/A   Partly Cloudy